Location: Celina Division
(33.3022°N, 96.7580°W)
Time: 15:37:29
(UTC+00:00)

Cosmos 1092 Rocket - Visible Passes

Search period start: 03 July 2022 00:00
Search period end: 13 July 2022 00:00
Orbit: 953 x 996 km, 83.0° (Epoch: 02 July)

Date Brightness Start Highest point End Pass type
(mag) Time Alt. Az. Time Alt. Az. Time Alt. Az.
05 Jul 6.9 10:43:05 10° ESE 10:45:36 13° E 10:48:05 10° ENE visible
09 Jul 6.5 10:35:58 10° SE 10:40:24 21° E 10:44:50 10° NE visible
12 Jul 6.5 10:06:42 10° ESE 10:10:31 17° E 10:14:20 10° NE visible
